Meteo pe oră la Dachnyy

Astăzi, 14 Aprilie, Miercuri

Timp Temperatura Precipitaţii Vânt Presiune Umiditate
00:00 +10°C° 0 mm 2 m/s 749 mmHg 73%
01:00 +10°C° 0 mm 2 m/s 749 mmHg 76%
02:00 +9°C° 0 mm 2 m/s 749 mmHg 79%
03:00 +9°C° 0 mm 2 m/s 749 mmHg 79%
04:00 +10°C° 0 mm 2 m/s 748 mmHg 80%
05:00 +10°C° 0 mm 2 m/s 748 mmHg 81%
06:00 +12°C° 0 mm 2 m/s 748 mmHg 78%
07:00 +12°C° 0 mm 3 m/s 748 mmHg 75%
08:00 +13°C° 0 mm 3 m/s 749 mmHg 72%
09:00 +14°C° 0 mm 3 m/s 749 mmHg 67%
10:00 +17°C° 0 mm 4 m/s 749 mmHg 62%
11:00 +18°C° 0 mm 4 m/s 748 mmHg 58%
12:00 +18°C° 0.1 mm 4 m/s 748 mmHg 56%
13:00 +18°C° 0.1 mm 4 m/s 748 mmHg 55%
14:00 +18°C° 0.1 mm 3 m/s 748 mmHg 53%
15:00 +18°C° 0.2 mm 3 m/s 748 mmHg 57%
16:00 +17°C° 0.2 mm 2 m/s 748 mmHg 61%
17:00 +16°C° 0.2 mm 2 m/s 748 mmHg 65%
18:00 +15°C° 0.2 mm 2 m/s 748 mmHg 71%
19:00 +14°C° 0.2 mm 2 m/s 748 mmHg 77%
20:00 +13°C° 0.2 mm 1 m/s 749 mmHg 84%
21:00 +12°C° 0.1 mm 2 m/s 749 mmHg 87%
22:00 +10°C° 0.1 mm 2 m/s 749 mmHg 91%
23:00 +10°C° 0.1 mm 3 m/s 749 mmHg 94%

Mâine, 15 Aprilie, Joi

Timp Temperatura Precipitaţii Vânt Presiune Umiditate
00:00 +9°C° 0 mm 3 m/s 749 mmHg 93%
01:00 +9°C° 0 mm 3 m/s 749 mmHg 93%
02:00 +8°C° 0 mm 4 m/s 749 mmHg 92%
03:00 +7°C° 0 mm 4 m/s 749 mmHg 92%
04:00 +7°C° 0 mm 4 m/s 749 mmHg 91%
05:00 +7°C° 0 mm 4 m/s 750 mmHg 91%
06:00 +7°C° 0 mm 4 m/s 750 mmHg 89%
07:00 +7°C° 0 mm 4 m/s 750 mmHg 88%
08:00 +7°C° 0 mm 4 m/s 750 mmHg 87%
09:00 +7°C° 0 mm 5 m/s 750 mmHg 84%
10:00 +7°C° 0 mm 5 m/s 750 mmHg 82%
11:00 +8°C° 0 mm 5 m/s 751 mmHg 79%
12:00 +8°C° 0 mm 5 m/s 751 mmHg 79%
13:00 +8°C° 0 mm 5 m/s 751 mmHg 78%
14:00 +7°C° 0 mm 5 m/s 751 mmHg 77%
15:00 +7°C° 0 mm 6 m/s 751 mmHg 78%
16:00 +7°C° 0 mm 6 m/s 751 mmHg 79%
17:00 +5°C° 0 mm 6 m/s 752 mmHg 79%
18:00 +5°C° 0 mm 6 m/s 752 mmHg 81%
19:00 +4°C° 0 mm 6 m/s 752 mmHg 82%
20:00 +4°C° 0 mm 6 m/s 752 mmHg 83%
21:00 +5°C° 0 mm 5 m/s 752 mmHg 84%
22:00 +3°C° 0 mm 5 m/s 752 mmHg 84%
23:00 +3°C° 0 mm 5 m/s 752 mmHg 85%

Poimâine, 16 Aprilie, Vineri

Timp Temperatura Precipitaţii Vânt Presiune Umiditate
00:00 +3°C° 0 mm 5 m/s 752 mmHg 85%
01:00 +3°C° 0 mm 5 m/s 752 mmHg 85%
02:00 +2°C° 0 mm 5 m/s 752 mmHg 85%
03:00 +2°C° 0 mm 5 m/s 752 mmHg 85%
04:00 +2°C° 0 mm 5 m/s 752 mmHg 85%
05:00 +2°C° 0 mm 5 m/s 752 mmHg 85%
06:00 +3°C° 0 mm 5 m/s 753 mmHg 82%
07:00 +3°C° 0 mm 5 m/s 753 mmHg 79%
08:00 +5°C° 0 mm 5 m/s 753 mmHg 76%
09:00 +7°C° 0 mm 5 m/s 753 mmHg 72%
10:00 +8°C° 0 mm 5 m/s 753 mmHg 67%
11:00 +9°C° 0 mm 6 m/s 754 mmHg 63%
12:00 +10°C° 0 mm 6 m/s 754 mmHg 61%
13:00 +11°C° 0 mm 6 m/s 754 mmHg 58%
14:00 +13°C° 0 mm 6 m/s 754 mmHg 56%
15:00 +12°C° 0 mm 5 m/s 754 mmHg 57%
16:00 +10°C° 0 mm 5 m/s 754 mmHg 58%
17:00 +10°C° 0 mm 5 m/s 754 mmHg 58%
18:00 +9°C° 0 mm 5 m/s 754 mmHg 59%
19:00 +8°C° 0 mm 5 m/s 754 mmHg 59%
20:00 +7°C° 0 mm 4 m/s 755 mmHg 60%
21:00 +6°C° 0 mm 4 m/s 755 mmHg 61%
22:00 +6°C° 0 mm 4 m/s 755 mmHg 61%
23:00 +5°C° 0 mm 4 m/s 755 mmHg 62%

17 Aprilie, Sâmbătă

Timp Temperatura Precipitaţii Vânt Presiune Umiditate
00:00 +4°C° 0 mm 4 m/s 755 mmHg 65%
01:00 +4°C° 0 mm 4 m/s 756 mmHg 67%
02:00 +3°C° 0 mm 4 m/s 756 mmHg 70%
03:00 +3°C° 0 mm 4 m/s 756 mmHg 71%
04:00 +3°C° 0 mm 4 m/s 756 mmHg 72%
05:00 +1°C° 0 mm 4 m/s 756 mmHg 73%
06:00 +3°C° 0 mm 4 m/s 757 mmHg 67%
07:00 +5°C° 0 mm 5 m/s 757 mmHg 61%
08:00 +6°C° 0 mm 5 m/s 757 mmHg 54%
09:00 +7°C° 0 mm 5 m/s 757 mmHg 49%
10:00 +9°C° 0 mm 5 m/s 757 mmHg 44%
11:00 +10°C° 0 mm 5 m/s 757 mmHg 39%
12:00 +12°C° 0 mm 5 m/s 757 mmHg 36%
13:00 +12°C° 0 mm 5 m/s 757 mmHg 34%
14:00 +13°C° 0 mm 5 m/s 757 mmHg 32%
15:00 +12°C° 0 mm 5 m/s 757 mmHg 34%
16:00 +12°C° 0 mm 5 m/s 757 mmHg 37%
17:00 +11°C° 0 mm 4 m/s 757 mmHg 40%
18:00 +10°C° 0 mm 4 m/s 757 mmHg 47%
19:00 +8°C° 0 mm 3 m/s 757 mmHg 54%
20:00 +5°C° 0 mm 3 m/s 757 mmHg 61%
21:00 +5°C° 0 mm 3 m/s 757 mmHg 64%
22:00 +4°C° 0 mm 3 m/s 758 mmHg 67%
23:00 +4°C° 0 mm 3 m/s 758 mmHg 70%

18 Aprilie, Duminică

Timp Temperatura Precipitaţii Vânt Presiune Umiditate
00:00 +4°C° 0 mm 2 m/s 758 mmHg 72%
01:00 +3°C° 0 mm 2 m/s 758 mmHg 74%
02:00 +3°C° 0 mm 2 m/s 758 mmHg 77%
03:00 +3°C° 0 mm 2 m/s 758 mmHg 78%
04:00 +2°C° 0 mm 2 m/s 758 mmHg 79%
05:00 +2°C° 0 mm 2 m/s 758 mmHg 81%
06:00 +3°C° 0 mm 3 m/s 758 mmHg 72%
07:00 +5°C° 0 mm 3 m/s 758 mmHg 64%
08:00 +8°C° 0 mm 3 m/s 758 mmHg 56%
09:00 +8°C° 0 mm 4 m/s 758 mmHg 51%
10:00 +11°C° 0 mm 4 m/s 758 mmHg 45%
11:00 +12°C° 0 mm 4 m/s 758 mmHg 40%
12:00 +13°C° 0 mm 4 m/s 758 mmHg 39%
13:00 +13°C° 0 mm 4 m/s 758 mmHg 37%
14:00 +14°C° 0 mm 4 m/s 758 mmHg 36%
15:00 +13°C° 0 mm 3 m/s 758 mmHg 38%
16:00 +13°C° 0 mm 3 m/s 758 mmHg 41%
17:00 +13°C° 0 mm 3 m/s 758 mmHg 43%
18:00 +12°C° 0 mm 2 m/s 758 mmHg 50%
19:00 +9°C° 0 mm 2 m/s 758 mmHg 58%
20:00 +7°C° 0 mm 2 m/s 758 mmHg 65%
21:00 +7°C° 0 mm 2 m/s 759 mmHg 68%
22:00 +6°C° 0 mm 2 m/s 759 mmHg 70%
23:00 +5°C° 0 mm 2 m/s 759 mmHg 73%

19 Aprilie, Luni

Timp Temperatura Precipitaţii Vânt Presiune Umiditate
00:00 +5°C° 0 mm 2 m/s 759 mmHg 74%
01:00 +4°C° 0 mm 2 m/s 759 mmHg 75%
02:00 +4°C° 0 mm 2 m/s 760 mmHg 77%
03:00 +4°C° 0 mm 2 m/s 760 mmHg 78%
04:00 +3°C° 0 mm 2 m/s 760 mmHg 80%
05:00 +3°C° 0 mm 2 m/s 760 mmHg 81%
06:00 +5°C° 0 mm 2 m/s 760 mmHg 74%
07:00 +7°C° 0 mm 2 m/s 760 mmHg 66%
08:00 +9°C° 0 mm 2 m/s 760 mmHg 59%
09:00 +10°C° 0 mm 2 m/s 760 mmHg 54%
10:00 +11°C° 0 mm 3 m/s 760 mmHg 49%
11:00 +13°C° 0 mm 3 m/s 760 mmHg 45%
12:00 +13°C° 0 mm 3 m/s 760 mmHg 44%
13:00 +13°C° 0 mm 3 m/s 760 mmHg 44%
14:00 +13°C° 0 mm 3 m/s 760 mmHg 44%
15:00 +13°C° 0 mm 2 m/s 760 mmHg 48%
16:00 +13°C° 0 mm 2 m/s 759 mmHg 52%
17:00 +12°C° 0 mm 2 m/s 759 mmHg 56%
18:00 +12°C° 0 mm 2 m/s 759 mmHg 58%
19:00 +10°C° 0 mm 2 m/s 759 mmHg 61%
20:00 +9°C° 0 mm 2 m/s 760 mmHg 64%
21:00 +9°C° 0 mm 2 m/s 760 mmHg 65%
22:00 +9°C° 0 mm 2 m/s 760 mmHg 66%
23:00 +8°C° 0 mm 2 m/s 760 mmHg 67%
Arată mai mult

Formular de consimțământ

Meteoprog și furnizorii noștri de servicii pot stoca și accesa date personale, precum cookies, identificatori de dispozitiv sau alte tehnologii similare pe dispozitivul dumneavoastră și procesa astfel de date pentru a personaliza conținutul și reclamele, dar și pentru a oferi caracteristici de social media și pentru a analiza traficul.

  • Stocarea și/sau accesarea informațiilor pe dispozitivul dumneavoastră

    Cookies, identificatori de dispozitiv sau alte informații pot fi stocate sau accesate pe dispozitiv în scopurile indicate mai sus.

  • Reclame și conținut personalizat, evaluarea reclamelor și a conținutului, informații despre audiențe și dezvoltarea produselor

    Reclamele și conținutul pot fi personalizate pe baza unui profil. Pot fi adăugate date suplimentare pentru a personaliza mai bine reclamele și conținutul. Performanța reclamelor și conținutului poate fi măsurată. Pot fi obținute informații despre utilizatorii care au văzut reclamele și conținutul. Aceste date pot fi utilizate pentru a dezvolta sau îmbunătăți experiența utilizatorilor, sistemele și software-ul.

Dând clic pe ‘Sunt de acord’, permiteți utilizarea cookie-urilor menționate, a identificatorilor de dispozitiv, balizelor web sau altor tehnologii similare. Setările pot fi modificate din browser-ul dispozitivului dumneavoastră.

În anumite scopuri, interesele legitime pot prima asupra consimțământului. Puteți citi mai multe informații în acest sens în Politica privind Confidențialitatea Datelor și Cookie.